Time,TemperatureF,DewpointF,PressureIn,WindDirection,WindDirectionDegrees,WindSpeedMPH,WindSpeedGustMPH,Humidity,HourlyPrecipIn,Conditions,Clouds,dailyrainin,SoftwareType,DateUTC
2013-03-18 00:00:00,31.0,18.0,30.35,North,360,1.0,7.0,59,0.00,,,0.00,Rainwise IP-100,2013-03-18 04:00:00,
2013-03-18 00:05:00,31.0,18.0,30.34,North,360,3.0,6.0,59,0.00,,,0.00,Rainwise IP-100,2013-03-18 04:05:00,
2013-03-18 00:10:00,31.0,18.0,30.34,NNW,337,4.0,7.0,60,0.00,,,0.00,Rainwise IP-100,2013-03-18 04:10:00,
2013-03-18 00:15:00,31.0,18.0,30.35,NNW,337,6.0,6.0,60,0.00,,,0.00,Rainwise IP-100,2013-03-18 04:15:00,
2013-03-18 00:20:00,30.0,18.0,30.35,NW,315,1.0,7.0,60,0.00,,,0.00,Rainwise IP-100,2013-03-18 04:20:00,
2013-03-18 00:25:00,30.0,18.0,30.35,WNW,292,0.0,6.0,61,0.00,,,0.00,Rainwise IP-100,2013-03-18 04:25:00,
2013-03-18 00:30:00,30.0,21.0,30.35,North,360,3.0,6.0,62,0.00,,,0.00,Rainwise IP-100,2013-03-18 04:30:00,
2013-03-18 00:35:00,30.0,21.0,30.35,NE,45,1.0,6.0,64,0.00,,,0.00,Rainwise IP-100,2013-03-18 04:35:00,
2013-03-18 00:40:00,29.0,18.0,30.35,NNE,22,1.0,5.0,64,0.00,,,0.00,Rainwise IP-100,2013-03-18 04:40:00,
2013-03-18 00:45:00,29.0,18.0,30.36,NW,315,0.0,6.0,65,0.00,,,0.00,Rainwise IP-100,2013-03-18 04:45:00,
2013-03-18 00:50:00,29.0,21.0,30.36,North,360,0.0,4.0,67,0.00,,,0.00,Rainwise IP-100,2013-03-18 04:50:00,
2013-03-18 00:55:00,29.0,21.0,30.36,North,360,4.0,6.0,67,0.00,,,0.00,Rainwise IP-100,2013-03-18 04:55:00,
2013-03-18 01:00:00,29.0,21.0,30.36,NE,45,1.0,6.0,67,0.00,,,0.00,Rainwise IP-100,2013-03-18 05:00:00,
2013-03-18 01:01:00,29.0,21.0,30.36,NE,45,3.0,6.0,67,0.00,,,0.00,Rainwise IP-100,2013-03-18 05:01:00,
2013-03-18 01:06:00,29.0,21.0,30.36,North,360,6.0,6.0,68,0.00,,,0.00,Rainwise IP-100,2013-03-18 05:06:00,
2013-03-18 01:11:00,29.0,21.0,30.36,NNE,22,4.0,6.0,66,0.00,,,0.00,Rainwise IP-100,2013-03-18 05:11:00,
2013-03-18 01:16:00,28.0,18.0,30.36,NW,315,3.0,6.0,67,0.00,,,0.00,Rainwise IP-100,2013-03-18 05:16:00,
2013-03-18 01:21:00,29.0,21.0,30.36,NE,45,0.0,5.0,66,0.00,,,0.00,Rainwise IP-100,2013-03-18 05:21:00,
2013-03-18 01:26:00,28.0,18.0,30.36,North,360,3.0,6.0,67,0.00,,,0.00,Rainwise IP-100,2013-03-18 05:26:00,
2013-03-18 01:32:00,28.0,18.0,30.36,North,360,4.0,6.0,66,0.00,,,0.00,Rainwise IP-100,2013-03-18 05:32:00,
2013-03-18 01:37:00,28.0,18.0,30.36,North,360,2.0,6.0,67,0.00,,,0.00,Rainwise IP-100,2013-03-18 05:37:00,
2013-03-18 01:42:00,28.0,18.0,30.36,NNW,337,6.0,6.0,67,0.00,,,0.00,Rainwise IP-100,2013-03-18 05:42:00,
2013-03-18 01:47:00,28.0,18.0,30.36,ENE,67,4.0,6.0,68,0.00,,,0.00,Rainwise IP-100,2013-03-18 05:47:00,
2013-03-18 01:52:00,28.0,18.0,30.37,North,360,2.0,6.0,68,0.00,,,0.00,Rainwise IP-100,2013-03-18 05:52:00,
2013-03-18 01:57:00,28.0,18.0,30.37,NNW,337,4.0,6.0,68,0.00,,,0.00,Rainwise IP-100,2013-03-18 05:57:00,
2013-03-18 02:02:00,27.0,18.0,30.37,NNE,22,1.0,4.0,69,0.00,,,0.00,Rainwise IP-100,2013-03-18 06:02:00,
2013-03-18 02:07:00,27.0,21.0,30.37,NNE,22,1.0,5.0,70,0.00,,,0.00,Rainwise IP-100,2013-03-18 06:07:00,
2013-03-18 02:12:00,27.0,21.0,30.38,NNE,22,2.0,3.0,72,0.00,,,0.00,Rainwise IP-100,2013-03-18 06:12:00,
2013-03-18 02:17:00,26.0,18.0,30.38,North,360,0.0,4.0,74,0.00,,,0.00,Rainwise IP-100,2013-03-18 06:17:00,
2013-03-18 02:22:00,26.0,18.0,30.39,North,360,1.0,3.0,73,0.00,,,0.00,Rainwise IP-100,2013-03-18 06:22:00,
2013-03-18 02:27:00,26.0,18.0,30.39,North,360,1.0,3.0,71,0.00,,,0.00,Rainwise IP-100,2013-03-18 06:27:00,
2013-03-18 02:31:00,26.0,18.0,30.39,North,360,2.0,4.0,71,0.00,,,0.00,Rainwise IP-100,2013-03-18 06:31:00,
2013-03-18 02:36:00,26.0,18.0,30.39,North,360,3.0,4.0,69,0.00,,,0.00,Rainwise IP-100,2013-03-18 06:36:00,
2013-03-18 02:41:00,27.0,18.0,30.39,NNW,337,4.0,6.0,67,0.00,,,0.00,Rainwise IP-100,2013-03-18 06:41:00,
2013-03-18 02:46:00,27.0,18.0,30.39,NNW,337,5.0,5.0,66,0.00,,,0.00,Rainwise IP-100,2013-03-18 06:46:00,
2013-03-18 02:51:00,27.0,18.0,30.39,North,360,2.0,6.0,66,0.00,,,0.00,Rainwise IP-100,2013-03-18 06:51:00,
2013-03-18 02:56:00,27.0,18.0,30.39,NNW,337,4.0,6.0,65,0.00,,,0.00,Rainwise IP-100,2013-03-18 06:56:00,
2013-03-18 03:01:00,27.0,16.0,30.39,North,360,3.0,6.0,63,0.00,,,0.00,Rainwise IP-100,2013-03-18 07:01:00,
2013-03-18 03:06:00,27.0,18.0,30.39,North,360,4.0,7.0,64,0.00,,,0.00,Rainwise IP-100,2013-03-18 07:06:00,
2013-03-18 03:11:00,27.0,16.0,30.40,North,360,6.0,6.0,61,0.00,,,0.00,Rainwise IP-100,2013-03-18 07:11:00,
2013-03-18 03:16:00,27.0,16.0,30.40,North,360,2.0,6.0,62,0.00,,,0.00,Rainwise IP-100,2013-03-18 07:16:00,
2013-03-18 03:21:00,27.0,18.0,30.40,North,360,5.0,6.0,64,0.00,,,0.00,Rainwise IP-100,2013-03-18 07:21:00,
2013-03-18 03:26:00,27.0,16.0,30.40,NNW,337,4.0,6.0,63,0.00,,,0.00,Rainwise IP-100,2013-03-18 07:26:00,
2013-03-18 03:31:00,27.0,16.0,30.40,North,360,5.0,7.0,62,0.00,,,0.00,Rainwise IP-100,2013-03-18 07:31:00,
2013-03-18 03:36:00,27.0,16.0,30.40,NNE,22,2.0,7.0,63,0.00,,,0.00,Rainwise IP-100,2013-03-18 07:36:00,
2013-03-18 03:41:00,27.0,16.0,30.40,NNE,22,8.0,8.0,62,0.00,,,0.00,Rainwise IP-100,2013-03-18 07:41:00,
2013-03-18 03:46:00,27.0,16.0,30.40,NNE,22,5.0,8.0,62,0.00,,,0.00,Rainwise IP-100,2013-03-18 07:46:00,
2013-03-18 03:51:00,27.0,16.0,30.41,NNW,337,3.0,7.0,61,0.00,,,0.00,Rainwise IP-100,2013-03-18 07:51:00,
2013-03-18 03:56:00,27.0,16.0,30.41,NW,315,5.0,7.0,62,0.00,,,0.00,Rainwise IP-100,2013-03-18 07:56:00,
2013-03-18 04:01:00,27.0,16.0,30.41,North,360,6.0,6.0,62,0.00,,,0.00,Rainwise IP-100,2013-03-18 08:01:00,
2013-03-18 04:06:00,27.0,16.0,30.41,North,360,5.0,7.0,63,0.00,,,0.00,Rainwise IP-100,2013-03-18 08:06:00,
2013-03-18 04:11:00,27.0,18.0,30.41,North,360,3.0,7.0,65,0.00,,,0.00,Rainwise IP-100,2013-03-18 08:11:00,
2013-03-18 04:16:00,26.0,16.0,30.41,North,360,0.0,7.0,64,0.00,,,0.00,Rainwise IP-100,2013-03-18 08:16:00,
2013-03-18 04:22:00,26.0,16.0,30.41,WNW,292,0.0,7.0,64,0.00,,,0.00,Rainwise IP-100,2013-03-18 08:22:00,
2013-03-18 04:27:00,26.0,16.0,30.41,North,360,6.0,7.0,66,0.00,,,0.00,Rainwise IP-100,2013-03-18 08:27:00,
2013-03-18 04:32:00,26.0,16.0,30.42,NE,45,2.0,7.0,66,0.00,,,0.00,Rainwise IP-100,2013-03-18 08:32:00,
2013-03-18 04:37:00,26.0,16.0,30.42,North,360,1.0,7.0,66,0.00,,,0.00,Rainwise IP-100,2013-03-18 08:37:00,
2013-03-18 04:42:00,26.0,18.0,30.42,NE,45,2.0,5.0,69,0.00,,,0.00,Rainwise IP-100,2013-03-18 08:42:00,
2013-03-18 04:47:00,26.0,18.0,30.42,NE,45,0.0,6.0,70,0.00,,,0.00,Rainwise IP-100,2013-03-18 08:47:00,
2013-03-18 04:52:00,25.0,18.0,30.43,NE,45,1.0,3.0,68,0.00,,,0.00,Rainwise IP-100,2013-03-18 08:52:00,
2013-03-18 04:57:00,25.0,18.0,30.43,NE,45,0.0,2.0,74,0.00,,,0.00,Rainwise IP-100,2013-03-18 08:57:00,
2013-03-18 05:02:00,25.0,18.0,30.43,NE,45,0.0,3.0,71,0.00,,,0.00,Rainwise IP-100,2013-03-18 09:02:00,
2013-03-18 05:07:00,25.0,18.0,30.43,North,360,3.0,6.0,72,0.00,,,0.00,Rainwise IP-100,2013-03-18 09:07:00,
2013-03-18 05:12:00,25.0,21.0,30.43,NNE,22,1.0,5.0,77,0.00,,,0.00,Rainwise IP-100,2013-03-18 09:12:00,
2013-03-18 05:17:00,25.0,18.0,30.43,NE,45,6.0,6.0,69,0.00,,,0.00,Rainwise IP-100,2013-03-18 09:17:00,
2013-03-18 05:22:00,25.0,18.0,30.43,North,360,0.0,7.0,68,0.00,,,0.00,Rainwise IP-100,2013-03-18 09:22:00,
2013-03-18 05:27:00,25.0,18.0,30.43,NE,45,3.0,7.0,69,0.00,,,0.00,Rainwise IP-100,2013-03-18 09:27:00,
2013-03-18 05:32:00,25.0,18.0,30.43,NE,45,2.0,7.0,68,0.00,,,0.00,Rainwise IP-100,2013-03-18 09:32:00,
2013-03-18 05:37:00,25.0,18.0,30.43,NE,45,2.0,7.0,71,0.00,,,0.00,Rainwise IP-100,2013-03-18 09:37:00,
2013-03-18 05:42:00,25.0,16.0,30.43,NNE,22,5.0,6.0,67,0.00,,,0.00,Rainwise IP-100,2013-03-18 09:42:00,
2013-03-18 05:47:00,25.0,16.0,30.43,North,360,3.0,6.0,64,0.00,,,0.00,Rainwise IP-100,2013-03-18 09:47:00,
2013-03-18 05:52:00,25.0,16.0,30.43,North,360,2.0,6.0,65,0.00,,,0.00,Rainwise IP-100,2013-03-18 09:52:00,
2013-03-18 05:57:00,25.0,18.0,30.43,NNE,22,1.0,5.0,69,0.00,,,0.00,Rainwise IP-100,2013-03-18 09:57:00,
2013-03-18 06:02:00,25.0,18.0,30.44,North,360,1.0,5.0,70,0.00,,,0.00,Rainwise IP-100,2013-03-18 10:02:00,
2013-03-18 06:07:00,25.0,18.0,30.44,NNE,22,1.0,6.0,68,0.00,,,0.00,Rainwise IP-100,2013-03-18 10:07:00,
2013-03-18 06:12:00,25.0,18.0,30.44,NNE,22,0.0,5.0,71,0.00,,,0.00,Rainwise IP-100,2013-03-18 10:12:00,
2013-03-18 06:17:00,25.0,16.0,30.44,North,360,6.0,7.0,64,0.00,,,0.00,Rainwise IP-100,2013-03-18 10:17:00,
2013-03-18 06:22:00,25.0,16.0,30.43,NNE,22,3.0,10.0,64,0.00,,,0.00,Rainwise IP-100,2013-03-18 10:22:00,
2013-03-18 06:27:00,25.0,16.0,30.43,NNW,337,3.0,6.0,66,0.00,,,0.00,Rainwise IP-100,2013-03-18 10:27:00,
2013-03-18 06:32:00,25.0,16.0,30.43,NNE,22,2.0,5.0,63,0.00,,,0.00,Rainwise IP-100,2013-03-18 10:32:00,
2013-03-18 06:37:00,25.0,16.0,30.43,NNE,22,0.0,4.0,65,0.00,,,0.00,Rainwise IP-100,2013-03-18 10:37:00,
2013-03-18 06:42:00,25.0,16.0,30.44,NE,45,0.0,5.0,64,0.00,,,0.00,Rainwise IP-100,2013-03-18 10:42:00,
2013-03-18 06:47:00,25.0,16.0,30.44,NE,45,4.0,4.0,65,0.00,,,0.00,Rainwise IP-100,2013-03-18 10:47:00,
2013-03-18 06:52:00,25.0,16.0,30.45,North,360,0.0,5.0,66,0.00,,,0.00,Rainwise IP-100,2013-03-18 10:52:00,
2013-03-18 06:57:00,25.0,18.0,30.45,NNE,22,0.0,3.0,68,0.00,,,0.00,Rainwise IP-100,2013-03-18 10:57:00,
2013-03-18 07:02:00,25.0,16.0,30.45,North,360,0.0,4.0,66,0.00,,,0.00,Rainwise IP-100,2013-03-18 11:02:00,
2013-03-18 07:07:00,25.0,16.0,30.45,North,360,2.0,5.0,66,0.00,,,0.00,Rainwise IP-100,2013-03-18 11:07:00,
2013-03-18 07:12:00,25.0,16.0,30.45,NE,45,3.0,6.0,64,0.00,,,0.00,Rainwise IP-100,2013-03-18 11:12:00,
2013-03-18 07:17:00,26.0,16.0,30.45,ENE,67,3.0,7.0,64,0.00,,,0.00,Rainwise IP-100,2013-03-18 11:17:00,
2013-03-18 07:22:00,26.0,18.0,30.44,NNE,22,0.0,6.0,68,0.00,,,0.00,Rainwise IP-100,2013-03-18 11:22:00,
2013-03-18 07:27:00,26.0,16.0,30.44,NE,45,5.0,6.0,61,0.00,,,0.00,Rainwise IP-100,2013-03-18 11:27:00,
2013-03-18 07:32:00,26.0,16.0,30.45,North,360,0.0,7.0,62,0.00,,,0.00,Rainwise IP-100,2013-03-18 11:32:00,
2013-03-18 07:37:00,26.0,16.0,30.45,SE,135,2.0,6.0,64,0.00,,,0.00,Rainwise IP-100,2013-03-18 11:37:00,
2013-03-18 07:42:00,26.0,16.0,30.45,NNE,22,0.0,8.0,61,0.00,,,0.00,Rainwise IP-100,2013-03-18 11:42:00,
2013-03-18 07:47:00,26.0,14.0,30.45,NE,45,0.0,7.0,60,0.00,,,0.00,Rainwise IP-100,2013-03-18 11:47:00,
2013-03-18 07:52:00,27.0,16.0,30.44,North,360,3.0,7.0,60,0.00,,,0.00,Rainwise IP-100,2013-03-18 11:52:00,
2013-03-18 07:57:00,27.0,16.0,30.44,North,360,6.0,9.0,57,0.00,,,0.00,Rainwise IP-100,2013-03-18 11:57:00,
2013-03-18 08:02:00,27.0,16.0,30.43,North,360,5.0,10.0,58,0.00,,,0.00,Rainwise IP-100,2013-03-18 12:02:00,
2013-03-18 08:07:00,27.0,16.0,30.43,North,360,4.0,7.0,59,0.00,,,0.00,Rainwise IP-100,2013-03-18 12:07:00,
2013-03-18 08:12:00,27.0,16.0,30.43,ENE,67,6.0,9.0,57,0.00,,,0.00,Rainwise IP-100,2013-03-18 12:12:00,
2013-03-18 08:17:00,27.0,14.0,30.43,NW,315,4.0,7.0,56,0.00,,,0.00,Rainwise IP-100,2013-03-18 12:17:00,
2013-03-18 08:22:00,27.0,16.0,30.43,NNE,22,7.0,7.0,57,0.00,,,0.00,Rainwise IP-100,2013-03-18 12:22:00,
2013-03-18 08:27:00,28.0,14.0,30.43,NNW,337,6.0,9.0,55,0.00,,,0.00,Rainwise IP-100,2013-03-18 12:27:00,
2013-03-18 08:32:00,28.0,16.0,30.43,ENE,67,2.0,9.0,58,0.00,,,0.00,Rainwise IP-100,2013-03-18 12:32:00,
2013-03-18 08:37:00,28.0,14.0,30.43,North,360,5.0,6.0,56,0.00,,,0.00,Rainwise IP-100,2013-03-18 12:37:00,
2013-03-18 08:42:00,28.0,14.0,30.42,NNE,22,6.0,7.0,55,0.00,,,0.00,Rainwise IP-100,2013-03-18 12:42:00,
2013-03-18 08:47:00,28.0,14.0,30.42,East,90,1.0,8.0,55,0.00,,,0.00,Rainwise IP-100,2013-03-18 12:47:00,
2013-03-18 08:52:00,29.0,16.0,30.42,ENE,67,3.0,7.0,55,0.00,,,0.00,Rainwise IP-100,2013-03-18 12:52:00,
2013-03-18 08:57:00,29.0,16.0,30.42,NE,45,6.0,9.0,55,0.00,,,0.00,Rainwise IP-100,2013-03-18 12:57:00,
2013-03-18 09:02:00,29.0,16.0,30.42,NE,45,5.0,9.0,56,0.00,,,0.00,Rainwise IP-100,2013-03-18 13:02:00,
2013-03-18 09:07:00,30.0,18.0,30.42,NNE,22,0.0,10.0,58,0.00,,,0.00,Rainwise IP-100,2013-03-18 13:07:00,
2013-03-18 09:12:00,30.0,16.0,30.42,NE,45,2.0,9.0,54,0.00,,,0.00,Rainwise IP-100,2013-03-18 13:12:00,
2013-03-18 09:17:00,30.0,18.0,30.42,ENE,67,2.0,9.0,56,0.00,,,0.00,Rainwise IP-100,2013-03-18 13:17:00,
2013-03-18 09:22:00,30.0,18.0,30.42,ESE,112,4.0,10.0,57,0.00,,,0.00,Rainwise IP-100,2013-03-18 13:22:00,
2013-03-18 09:27:00,31.0,18.0,30.42,East,90,7.0,9.0,58,0.00,,,0.00,Rainwise IP-100,2013-03-18 13:27:00,
2013-03-18 09:32:00,31.0,18.0,30.42,ENE,67,6.0,9.0,59,0.00,,,0.00,Rainwise IP-100,2013-03-18 13:32:00,
2013-03-18 09:37:00,31.0,18.0,30.42,SE,135,3.0,9.0,60,0.00,,,0.00,Rainwise IP-100,2013-03-18 13:37:00,
2013-03-18 09:42:00,31.0,21.0,30.42,East,90,6.0,8.0,62,0.00,,,0.00,Rainwise IP-100,2013-03-18 13:42:00,
2013-03-18 09:47:00,31.0,21.0,30.42,ENE,67,10.0,12.0,62,0.00,,,0.00,Rainwise IP-100,2013-03-18 13:47:00,
2013-03-18 09:52:00,32.0,23.0,30.42,ESE,112,1.0,11.0,65,0.00,,,0.00,Rainwise IP-100,2013-03-18 13:52:00,
2013-03-18 09:57:00,31.0,21.0,30.42,East,90,7.0,16.0,67,0.00,,,0.00,Rainwise IP-100,2013-03-18 13:57:00,
2013-03-18 10:02:00,32.0,23.0,30.41,East,90,5.0,13.0,68,0.00,,,0.00,Rainwise IP-100,2013-03-18 14:02:00,
2013-03-18 10:07:00,32.0,23.0,30.41,NE,45,11.0,12.0,68,0.00,,,0.00,Rainwise IP-100,2013-03-18 14:07:00,
2013-03-18 10:12:00,32.0,24.0,30.40,ENE,67,8.0,13.0,70,0.00,,,0.00,Rainwise IP-100,2013-03-18 14:12:00,
2013-03-18 10:17:00,32.0,23.0,30.40,NE,45,4.0,12.0,68,0.00,,,0.00,Rainwise IP-100,2013-03-18 14:17:00,
2013-03-18 10:22:00,33.0,24.0,30.39,East,90,5.0,15.0,69,0.00,,,0.00,Rainwise IP-100,2013-03-18 14:22:00,
2013-03-18 10:27:00,32.0,24.0,30.39,East,90,7.0,17.0,72,0.00,,,0.00,Rainwise IP-100,2013-03-18 14:27:00,
2013-03-18 10:32:00,33.0,24.0,30.39,ESE,112,6.0,12.0,71,0.00,,,0.00,Rainwise IP-100,2013-03-18 14:32:00,
2013-03-18 10:37:00,32.0,24.0,30.39,NE,45,7.0,16.0,72,0.00,,,0.00,Rainwise IP-100,2013-03-18 14:37:00,
2013-03-18 10:42:00,33.0,24.0,30.39,SE,135,5.0,13.0,71,0.00,,,0.00,Rainwise IP-100,2013-03-18 14:42:00,
2013-03-18 10:47:00,33.0,26.0,30.39,ESE,112,1.0,15.0,72,0.00,,,0.00,Rainwise IP-100,2013-03-18 14:47:00,
2013-03-18 10:52:00,33.0,24.0,30.38,East,90,5.0,15.0,71,0.00,,,0.00,Rainwise IP-100,2013-03-18 14:52:00,
2013-03-18 10:57:00,34.0,26.0,30.38,East,90,8.0,9.0,68,0.00,,,0.00,Rainwise IP-100,2013-03-18 14:57:00,
2013-03-18 11:02:00,34.0,24.0,30.38,East,90,7.0,12.0,67,0.00,,,0.00,Rainwise IP-100,2013-03-18 15:02:00,
2013-03-18 11:07:00,33.0,24.0,30.38,East,90,13.0,16.0,69,0.00,,,0.00,Rainwise IP-100,2013-03-18 15:07:00,
2013-03-18 11:12:00,33.0,24.0,30.38,ESE,112,3.0,15.0,71,0.00,,,0.00,Rainwise IP-100,2013-03-18 15:12:00,
2013-03-18 11:17:00,33.0,24.0,30.38,NE,45,9.0,13.0,69,0.00,,,0.00,Rainwise IP-100,2013-03-18 15:17:00,
2013-03-18 11:22:00,33.0,24.0,30.38,SE,135,8.0,15.0,71,0.00,,,0.00,Rainwise IP-100,2013-03-18 15:22:00,
2013-03-18 11:27:00,34.0,26.0,30.38,NE,45,6.0,16.0,70,0.00,,,0.00,Rainwise IP-100,2013-03-18 15:27:00,
2013-03-18 11:32:00,34.0,26.0,30.37,ENE,67,9.0,16.0,70,0.00,,,0.00,Rainwise IP-100,2013-03-18 15:32:00,
2013-03-18 11:37:00,34.0,26.0,30.37,East,90,0.0,15.0,71,0.00,,,0.00,Rainwise IP-100,2013-03-18 15:37:00,
2013-03-18 11:42:00,34.0,26.0,30.37,East,90,6.0,15.0,72,0.00,,,0.00,Rainwise IP-100,2013-03-18 15:42:00,
2013-03-18 11:47:00,35.0,26.0,30.37,ENE,67,10.0,15.0,72,0.00,,,0.00,Rainwise IP-100,2013-03-18 15:47:00,
2013-03-18 11:52:00,35.0,26.0,30.35,NE,45,13.0,19.0,72,0.06,,,0.01,Rainwise IP-100,2013-03-18 15:52:00,
2013-03-18 11:57:00,35.0,28.0,30.35,NNE,22,9.0,15.0,74,0.06,,,0.01,Rainwise IP-100,2013-03-18 15:57:00,
2013-03-18 12:02:00,35.0,28.0,30.35,SSE,157,4.0,17.0,76,0.00,,,0.01,Rainwise IP-100,2013-03-18 16:02:00,
2013-03-18 12:07:00,35.0,28.0,30.35,ESE,112,8.0,15.0,74,0.00,,,0.01,Rainwise IP-100,2013-03-18 16:07:00,
2013-03-18 12:12:00,35.0,28.0,30.35,East,90,3.0,15.0,76,0.00,,,0.01,Rainwise IP-100,2013-03-18 16:12:00,
2013-03-18 12:17:00,35.0,28.0,30.35,ESE,112,7.0,16.0,76,0.00,,,0.01,Rainwise IP-100,2013-03-18 16:17:00,
2013-03-18 12:22:00,35.0,29.0,30.33,East,90,7.0,22.0,79,0.00,,,0.01,Rainwise IP-100,2013-03-18 16:22:00,
2013-03-18 12:27:00,35.0,29.0,30.33,SE,135,4.0,20.0,79,0.00,,,0.01,Rainwise IP-100,2013-03-18 16:27:00,
2013-03-18 12:32:00,35.0,29.0,30.33,NE,45,6.0,17.0,79,0.00,,,0.01,Rainwise IP-100,2013-03-18 16:32:00,
2013-03-18 12:37:00,35.0,29.0,30.33,ENE,67,12.0,16.0,80,0.00,,,0.01,Rainwise IP-100,2013-03-18 16:37:00,
2013-03-18 12:42:00,35.0,29.0,30.33,South,180,5.0,17.0,82,0.00,,,0.01,Rainwise IP-100,2013-03-18 16:42:00,
2013-03-18 12:47:00,35.0,29.0,30.33,East,90,6.0,20.0,82,0.00,,,0.01,Rainwise IP-100,2013-03-18 16:47:00,
2013-03-18 12:52:00,35.0,31.0,30.32,NE,45,15.0,18.0,84,0.00,,,0.01,Rainwise IP-100,2013-03-18 16:52:00,
2013-03-18 12:57:00,35.0,31.0,30.32,East,90,1.0,21.0,86,0.00,,,0.01,Rainwise IP-100,2013-03-18 16:57:00,
2013-03-18 13:02:00,35.0,31.0,30.33,East,90,7.0,14.0,85,0.00,,,0.01,Rainwise IP-100,2013-03-18 17:02:00,
2013-03-18 13:07:00,35.0,31.0,30.33,East,90,7.0,17.0,86,0.00,,,0.01,Rainwise IP-100,2013-03-18 17:07:00,
2013-03-18 13:12:00,34.0,31.0,30.32,East,90,9.0,16.0,87,0.00,,,0.01,Rainwise IP-100,2013-03-18 17:12:00,
2013-03-18 13:17:00,34.0,31.0,30.32,NE,45,8.0,17.0,87,0.00,,,0.01,Rainwise IP-100,2013-03-18 17:17:00,
2013-03-18 13:22:00,34.0,32.0,30.31,East,90,9.0,20.0,88,0.00,,,0.01,Rainwise IP-100,2013-03-18 17:22:00,
2013-03-18 13:27:00,34.0,31.0,30.31,ESE,112,12.0,19.0,87,0.00,,,0.01,Rainwise IP-100,2013-03-18 17:27:00,
2013-03-18 13:32:00,35.0,31.0,30.30,ENE,67,5.0,18.0,87,0.00,,,0.01,Rainwise IP-100,2013-03-18 17:32:00,
2013-03-18 13:37:00,35.0,31.0,30.30,North,360,5.0,13.0,87,0.00,,,0.01,Rainwise IP-100,2013-03-18 17:37:00,
2013-03-18 13:42:00,35.0,31.0,30.29,NE,45,9.0,14.0,86,0.00,,,0.01,Rainwise IP-100,2013-03-18 17:42:00,
2013-03-18 13:47:00,35.0,31.0,30.29,East,90,7.0,15.0,86,0.00,,,0.01,Rainwise IP-100,2013-03-18 17:47:00,
2013-03-18 13:52:00,35.0,31.0,30.29,SE,135,5.0,19.0,86,0.00,,,0.01,Rainwise IP-100,2013-03-18 17:52:00,
2013-03-18 13:57:00,35.0,31.0,30.29,ESE,112,7.0,12.0,85,0.00,,,0.01,Rainwise IP-100,2013-03-18 17:57:00,
2013-03-18 14:02:00,35.0,31.0,30.29,East,90,8.0,18.0,86,0.00,,,0.01,Rainwise IP-100,2013-03-18 18:02:00,
2013-03-18 14:07:00,35.0,31.0,30.29,East,90,8.0,14.0,86,0.00,,,0.01,Rainwise IP-100,2013-03-18 18:07:00,
2013-03-18 14:12:00,35.0,31.0,30.28,ENE,67,1.0,12.0,86,0.00,,,0.01,Rainwise IP-100,2013-03-18 18:12:00,
2013-03-18 14:17:00,34.0,31.0,30.28,ENE,67,13.0,20.0,87,0.00,,,0.01,Rainwise IP-100,2013-03-18 18:17:00,
2013-03-18 14:22:00,35.0,31.0,30.27,East,90,9.0,18.0,87,0.00,,,0.01,Rainwise IP-100,2013-03-18 18:22:00,
2013-03-18 14:27:00,34.0,31.0,30.27,East,90,10.0,15.0,87,0.00,,,0.01,Rainwise IP-100,2013-03-18 18:27:00,
2013-03-18 14:32:00,34.0,31.0,30.27,ENE,67,8.0,15.0,87,0.00,,,0.01,Rainwise IP-100,2013-03-18 18:32:00,
2013-03-18 14:37:00,34.0,32.0,30.27,East,90,6.0,12.0,88,0.00,,,0.01,Rainwise IP-100,2013-03-18 18:37:00,
2013-03-18 14:42:00,34.0,31.0,30.27,ESE,112,9.0,15.0,87,0.00,,,0.01,Rainwise IP-100,2013-03-18 18:42:00,
2013-03-18 14:47:00,34.0,32.0,30.27,East,90,9.0,13.0,88,0.00,,,0.01,Rainwise IP-100,2013-03-18 18:47:00,
2013-03-18 14:52:00,34.0,32.0,30.27,NE,45,6.0,19.0,89,0.00,,,0.01,Rainwise IP-100,2013-03-18 18:52:00,
2013-03-18 14:57:00,34.0,32.0,30.27,NE,45,21.0,21.0,89,0.00,,,0.01,Rainwise IP-100,2013-03-18 18:57:00,
2013-03-18 15:02:00,34.0,32.0,30.25,ENE,67,13.0,21.0,89,0.00,,,0.01,Rainwise IP-100,2013-03-18 19:02:00,
2013-03-18 15:07:00,34.0,32.0,30.25,East,90,10.0,23.0,89,0.00,,,0.01,Rainwise IP-100,2013-03-18 19:07:00,
2013-03-18 15:12:00,34.0,32.0,30.26,East,90,6.0,16.0,90,0.00,,,0.01,Rainwise IP-100,2013-03-18 19:12:00,
2013-03-18 15:17:00,34.0,32.0,30.26,East,90,9.0,13.0,90,0.00,,,0.01,Rainwise IP-100,2013-03-18 19:17:00,
2013-03-18 15:22:00,34.0,32.0,30.25,East,90,6.0,16.0,90,0.00,,,0.01,Rainwise IP-100,2013-03-18 19:22:00,
2013-03-18 15:27:00,33.0,31.0,30.25,East,90,6.0,14.0,90,0.00,,,0.01,Rainwise IP-100,2013-03-18 19:27:00,
2013-03-18 15:32:00,33.0,31.0,30.26,NE,45,6.0,12.0,91,0.00,,,0.01,Rainwise IP-100,2013-03-18 19:32:00,
2013-03-18 15:37:00,33.0,31.0,30.26,East,90,7.0,15.0,91,0.00,,,0.01,Rainwise IP-100,2013-03-18 19:37:00,
2013-03-18 15:42:00,33.0,31.0,30.25,ENE,67,8.0,12.0,92,0.00,,,0.01,Rainwise IP-100,2013-03-18 19:42:00,
2013-03-18 15:47:00,33.0,31.0,30.25,East,90,10.0,14.0,92,0.00,,,0.01,Rainwise IP-100,2013-03-18 19:47:00,
2013-03-18 15:52:00,33.0,31.0,30.26,ESE,112,7.0,14.0,92,0.00,,,0.01,Rainwise IP-100,2013-03-18 19:52:00,
2013-03-18 15:58:00,33.0,32.0,30.26,East,90,3.0,12.0,93,0.00,,,0.01,Rainwise IP-100,2013-03-18 19:58:00,
2013-03-18 16:03:00,33.0,32.0,30.25,NNE,22,5.0,12.0,93,0.00,,,0.01,Rainwise IP-100,2013-03-18 20:03:00,
2013-03-18 16:08:00,33.0,32.0,30.25,ENE,67,5.0,10.0,94,0.00,,,0.01,Rainwise IP-100,2013-03-18 20:08:00,
2013-03-18 16:13:00,33.0,32.0,30.25,SE,135,2.0,10.0,94,0.00,,,0.01,Rainwise IP-100,2013-03-18 20:13:00,
2013-03-18 16:18:00,32.0,31.0,30.25,NE,45,4.0,13.0,95,0.00,,,0.01,Rainwise IP-100,2013-03-18 20:18:00,
2013-03-18 16:23:00,32.0,31.0,30.24,ENE,67,6.0,15.0,95,0.00,,,0.01,Rainwise IP-100,2013-03-18 20:23:00,
2013-03-18 16:28:00,32.0,31.0,30.24,NE,45,6.0,17.0,94,0.00,,,0.01,Rainwise IP-100,2013-03-18 20:28:00,
2013-03-18 16:33:00,32.0,31.0,30.23,NNE,22,3.0,13.0,93,0.00,,,0.01,Rainwise IP-100,2013-03-18 20:33:00,
2013-03-18 16:38:00,32.0,31.0,30.23,East,90,6.0,12.0,92,0.00,,,0.01,Rainwise IP-100,2013-03-18 20:38:00,
2013-03-18 16:43:00,32.0,31.0,30.23,East,90,9.0,13.0,92,0.00,,,0.01,Rainwise IP-100,2013-03-18 20:43:00,
2013-03-18 16:48:00,32.0,29.0,30.23,East,90,6.0,12.0,91,0.00,,,0.01,Rainwise IP-100,2013-03-18 20:48:00,
2013-03-18 16:53:00,32.0,29.0,30.22,East,90,11.0,13.0,91,0.00,,,0.01,Rainwise IP-100,2013-03-18 20:53:00,
2013-03-18 16:58:00,32.0,29.0,30.22,East,90,7.0,15.0,90,0.00,,,0.01,Rainwise IP-100,2013-03-18 20:58:00,
2013-03-18 17:03:00,32.0,29.0,30.21,East,90,4.0,14.0,90,0.00,,,0.01,Rainwise IP-100,2013-03-18 21:03:00,
2013-03-18 17:08:00,32.0,29.0,30.21,SE,135,6.0,13.0,89,0.00,,,0.01,Rainwise IP-100,2013-03-18 21:08:00,
2013-03-18 17:13:00,32.0,29.0,30.21,ENE,67,8.0,10.0,89,0.00,,,0.01,Rainwise IP-100,2013-03-18 21:13:00,
2013-03-18 17:18:00,32.0,29.0,30.21,NE,45,3.0,13.0,88,0.00,,,0.01,Rainwise IP-100,2013-03-18 21:18:00,
2013-03-18 17:23:00,32.0,29.0,30.21,NNE,22,2.0,14.0,88,0.00,,,0.01,Rainwise IP-100,2013-03-18 21:23:00,
2013-03-18 17:28:00,32.0,29.0,30.21,ENE,67,6.0,12.0,88,0.00,,,0.01,Rainwise IP-100,2013-03-18 21:28:00,
2013-03-18 17:33:00,32.0,29.0,30.21,East,90,4.0,13.0,88,0.00,,,0.01,Rainwise IP-100,2013-03-18 21:33:00,
2013-03-18 17:38:00,32.0,29.0,30.21,North,360,7.0,12.0,88,0.00,,,0.01,Rainwise IP-100,2013-03-18 21:38:00,
2013-03-18 17:43:00,32.0,29.0,30.21,NE,45,9.0,11.0,88,0.00,,,0.01,Rainwise IP-100,2013-03-18 21:43:00,
2013-03-18 17:48:00,32.0,29.0,30.21,ENE,67,7.0,13.0,88,0.00,,,0.01,Rainwise IP-100,2013-03-18 21:48:00,
2013-03-18 17:53:00,32.0,29.0,30.19,East,90,6.0,16.0,88,0.00,,,0.01,Rainwise IP-100,2013-03-18 21:53:00,
2013-03-18 17:58:00,32.0,29.0,30.19,ENE,67,7.0,15.0,88,0.00,,,0.01,Rainwise IP-100,2013-03-18 21:58:00,
2013-03-18 18:03:00,32.0,29.0,30.17,NE,45,13.0,19.0,88,0.00,,,0.01,Rainwise IP-100,2013-03-18 22:03:00,
2013-03-18 18:08:00,32.0,29.0,30.17,East,90,9.0,19.0,88,0.00,,,0.01,Rainwise IP-100,2013-03-18 22:08:00,
2013-03-18 18:13:00,32.0,29.0,30.15,ESE,112,6.0,17.0,88,0.00,,,0.01,Rainwise IP-100,2013-03-18 22:13:00,
2013-03-18 18:18:00,32.0,29.0,30.15,East,90,7.0,19.0,88,0.00,,,0.01,Rainwise IP-100,2013-03-18 22:18:00,
2013-03-18 18:23:00,32.0,29.0,30.15,NE,45,17.0,17.0,88,0.00,,,0.01,Rainwise IP-100,2013-03-18 22:23:00,
2013-03-18 18:28:00,32.0,29.0,30.15,East,90,9.0,17.0,89,0.00,,,0.01,Rainwise IP-100,2013-03-18 22:28:00,
2013-03-18 18:33:00,32.0,29.0,30.15,NE,45,5.0,20.0,88,0.00,,,0.01,Rainwise IP-100,2013-03-18 22:33:00,
2013-03-18 18:38:00,32.0,29.0,30.15,NE,45,8.0,18.0,88,0.00,,,0.01,Rainwise IP-100,2013-03-18 22:38:00,
2013-03-18 18:43:00,32.0,29.0,30.15,East,90,7.0,20.0,88,0.00,,,0.01,Rainwise IP-100,2013-03-18 22:43:00,
2013-03-18 18:48:00,32.0,29.0,30.15,ENE,67,15.0,20.0,88,0.00,,,0.01,Rainwise IP-100,2013-03-18 22:48:00,
2013-03-18 18:53:00,32.0,29.0,30.15,NE,45,12.0,16.0,88,0.00,,,0.01,Rainwise IP-100,2013-03-18 22:53:00,
2013-03-18 18:58:00,32.0,29.0,30.15,ENE,67,11.0,22.0,88,0.00,,,0.01,Rainwise IP-100,2013-03-18 22:58:00,
2013-03-18 19:03:00,32.0,29.0,30.15,NE,45,7.0,14.0,89,0.00,,,0.01,Rainwise IP-100,2013-03-18 23:03:00,
2013-03-18 19:08:00,32.0,29.0,30.15,East,90,6.0,15.0,90,0.00,,,0.01,Rainwise IP-100,2013-03-18 23:08:00,
2013-03-18 19:13:00,32.0,29.0,30.15,East,90,6.0,17.0,90,0.00,,,0.01,Rainwise IP-100,2013-03-18 23:13:00,
2013-03-18 19:18:00,32.0,29.0,30.15,NE,45,12.0,12.0,90,0.00,,,0.01,Rainwise IP-100,2013-03-18 23:18:00,
2013-03-18 19:23:00,32.0,29.0,30.15,East,90,14.0,20.0,90,0.00,,,0.01,Rainwise IP-100,2013-03-18 23:23:00,
2013-03-18 19:28:00,32.0,29.0,30.15,NE,45,10.0,15.0,90,0.00,,,0.01,Rainwise IP-100,2013-03-18 23:28:00,
2013-03-18 19:33:00,32.0,29.0,30.15,NNE,22,5.0,13.0,91,0.00,,,0.01,Rainwise IP-100,2013-03-18 23:33:00,
2013-03-18 19:38:00,32.0,29.0,30.15,East,90,5.0,15.0,91,0.00,,,0.01,Rainwise IP-100,2013-03-18 23:38:00,
2013-03-18 19:43:00,32.0,29.0,30.15,ENE,67,7.0,12.0,91,0.00,,,0.01,Rainwise IP-100,2013-03-18 23:43:00,
2013-03-18 19:48:00,32.0,29.0,30.15,NE,45,3.0,18.0,91,0.00,,,0.01,Rainwise IP-100,2013-03-18 23:48:00,
2013-03-18 19:53:00,32.0,29.0,30.14,East,90,5.0,13.0,91,0.00,,,0.01,Rainwise IP-100,2013-03-18 23:53:00,
2013-03-18 19:58:00,32.0,29.0,30.14,NNE,22,5.0,15.0,91,0.00,,,0.01,Rainwise IP-100,2013-03-18 23:58:00,
2013-03-18 20:03:00,32.0,29.0,30.13,North,360,6.0,20.0,91,0.00,,,0.01,Rainwise IP-100,2013-03-19 00:03:00,
2013-03-18 20:08:00,32.0,29.0,30.13,East,90,9.0,15.0,91,0.00,,,0.01,Rainwise IP-100,2013-03-19 00:08:00,
2013-03-18 20:13:00,32.0,29.0,30.13,ENE,67,7.0,15.0,90,0.00,,,0.01,Rainwise IP-100,2013-03-19 00:13:00,
2013-03-18 20:18:00,32.0,29.0,30.13,ENE,67,9.0,21.0,90,0.00,,,0.01,Rainwise IP-100,2013-03-19 00:18:00,
2013-03-18 20:23:00,32.0,29.0,30.13,North,360,4.0,16.0,90,0.00,,,0.01,Rainwise IP-100,2013-03-19 00:23:00,
2013-03-18 20:28:00,32.0,29.0,30.13,NNE,22,7.0,15.0,90,0.00,,,0.01,Rainwise IP-100,2013-03-19 00:28:00,
2013-03-18 20:34:00,32.0,29.0,30.13,SE,135,6.0,19.0,90,0.00,,,0.01,Rainwise IP-100,2013-03-19 00:34:00,
2013-03-18 20:39:00,32.0,29.0,30.13,ENE,67,12.0,17.0,90,0.00,,,0.01,Rainwise IP-100,2013-03-19 00:39:00,
2013-03-18 20:44:00,32.0,29.0,30.12,East,90,10.0,15.0,90,0.00,,,0.01,Rainwise IP-100,2013-03-19 00:44:00,
2013-03-18 20:49:00,32.0,29.0,30.12,NE,45,4.0,16.0,90,0.00,,,0.01,Rainwise IP-100,2013-03-19 00:49:00,
2013-03-18 20:54:00,32.0,29.0,30.11,ESE,112,2.0,13.0,90,0.00,,,0.01,Rainwise IP-100,2013-03-19 00:54:00,
2013-03-18 20:59:00,32.0,29.0,30.11,ENE,67,6.0,13.0,91,0.00,,,0.01,Rainwise IP-100,2013-03-19 00:59:00,
2013-03-18 21:04:00,32.0,29.0,30.10,ENE,67,13.0,17.0,90,0.00,,,0.01,Rainwise IP-100,2013-03-19 01:04:00,
2013-03-18 21:09:00,33.0,31.0,30.10,East,90,5.0,16.0,88,0.00,,,0.01,Rainwise IP-100,2013-03-19 01:09:00,
2013-03-18 21:14:00,33.0,31.0,30.09,ENE,67,6.0,10.0,88,0.00,,,0.01,Rainwise IP-100,2013-03-19 01:14:00,
2013-03-18 21:19:00,33.0,31.0,30.09,East,90,7.0,13.0,88,0.00,,,0.01,Rainwise IP-100,2013-03-19 01:19:00,
2013-03-18 21:24:00,33.0,31.0,30.08,ENE,67,14.0,15.0,88,0.00,,,0.01,Rainwise IP-100,2013-03-19 01:24:00,
2013-03-18 21:29:00,33.0,31.0,30.08,North,360,0.0,14.0,88,0.00,,,0.01,Rainwise IP-100,2013-03-19 01:29:00,
2013-03-18 21:34:00,33.0,31.0,30.08,East,90,8.0,16.0,88,0.00,,,0.01,Rainwise IP-100,2013-03-19 01:34:00,
2013-03-18 21:39:00,33.0,31.0,30.08,ENE,67,5.0,12.0,88,0.00,,,0.01,Rainwise IP-100,2013-03-19 01:39:00,
2013-03-18 21:44:00,33.0,31.0,30.08,NNE,22,8.0,16.0,87,0.00,,,0.01,Rainwise IP-100,2013-03-19 01:44:00,
2013-03-18 21:49:00,33.0,31.0,30.08,ESE,112,5.0,18.0,87,0.00,,,0.01,Rainwise IP-100,2013-03-19 01:49:00,
2013-03-18 21:54:00,34.0,31.0,30.07,NE,45,2.0,12.0,87,0.00,,,0.01,Rainwise IP-100,2013-03-19 01:54:00,
2013-03-18 21:59:00,34.0,31.0,30.07,NE,45,6.0,16.0,87,0.00,,,0.01,Rainwise IP-100,2013-03-19 01:59:00,
2013-03-18 22:04:00,34.0,31.0,30.07,NE,45,6.0,15.0,86,0.00,,,0.01,Rainwise IP-100,2013-03-19 02:04:00,
2013-03-18 22:09:00,34.0,31.0,30.07,NE,45,14.0,17.0,86,0.00,,,0.01,Rainwise IP-100,2013-03-19 02:09:00,
2013-03-18 22:14:00,34.0,31.0,30.06,East,90,9.0,15.0,86,0.00,,,0.01,Rainwise IP-100,2013-03-19 02:14:00,
2013-03-18 22:19:00,34.0,31.0,30.06,ESE,112,9.0,15.0,86,0.12,,,0.03,Rainwise IP-100,2013-03-19 02:19:00,
2013-03-18 22:24:00,34.0,31.0,30.06,NNW,337,6.0,16.0,85,0.18,,,0.04,Rainwise IP-100,2013-03-19 02:24:00,
2013-03-18 22:29:00,35.0,31.0,30.06,ENE,67,14.0,17.0,85,0.12,,,0.05,Rainwise IP-100,2013-03-19 02:29:00,
2013-03-18 22:34:00,35.0,31.0,30.04,North,360,7.0,17.0,84,0.12,,,0.06,Rainwise IP-100,2013-03-19 02:34:00,
2013-03-18 22:39:00,35.0,31.0,30.04,NE,45,5.0,17.0,83,0.12,,,0.07,Rainwise IP-100,2013-03-19 02:39:00,
2013-03-18 22:44:00,35.0,31.0,30.04,NNE,22,2.0,11.0,83,0.18,,,0.09,Rainwise IP-100,2013-03-19 02:44:00,
2013-03-18 22:49:00,35.0,31.0,30.04,ENE,67,5.0,17.0,83,0.12,,,0.09,Rainwise IP-100,2013-03-19 02:49:00,
2013-03-18 22:54:00,35.0,29.0,30.03,NE,45,14.0,18.0,82,0.12,,,0.11,Rainwise IP-100,2013-03-19 02:54:00,
2013-03-18 22:59:00,35.0,29.0,30.03,ESE,112,5.0,20.0,82,0.12,,,0.11,Rainwise IP-100,2013-03-19 02:59:00,
2013-03-18 23:04:00,35.0,29.0,30.03,East,90,5.0,22.0,79,0.06,,,0.12,Rainwise IP-100,2013-03-19 03:04:00,
2013-03-18 23:09:00,35.0,29.0,30.03,North,360,3.0,14.0,80,0.12,,,0.13,Rainwise IP-100,2013-03-19 03:09:00,
2013-03-18 23:14:00,34.0,29.0,30.02,NNE,22,5.0,9.0,80,0.18,,,0.15,Rainwise IP-100,2013-03-19 03:14:00,
2013-03-18 23:19:00,34.0,29.0,30.02,East,90,10.0,15.0,81,0.24,,,0.17,Rainwise IP-100,2013-03-19 03:19:00,
2013-03-18 23:24:00,34.0,29.0,30.03,NE,45,9.0,17.0,81,0.18,,,0.18,Rainwise IP-100,2013-03-19 03:24:00,
2013-03-18 23:29:00,34.0,29.0,30.03,ENE,67,14.0,16.0,81,0.12,,,0.19,Rainwise IP-100,2013-03-19 03:29:00,
2013-03-18 23:34:00,34.0,29.0,30.01,ENE,67,7.0,22.0,80,0.12,,,0.20,Rainwise IP-100,2013-03-19 03:34:00,
2013-03-18 23:39:00,34.0,29.0,30.01,NE,45,2.0,18.0,80,0.12,,,0.21,Rainwise IP-100,2013-03-19 03:39:00,
2013-03-18 23:44:00,34.0,29.0,30.01,NNE,22,5.0,16.0,81,0.12,,,0.22,Rainwise IP-100,2013-03-19 03:44:00,
2013-03-18 23:49:00,34.0,29.0,30.01,East,90,10.0,18.0,81,0.12,,,0.23,Rainwise IP-100,2013-03-19 03:49:00,
2013-03-18 23:54:00,34.0,29.0,29.99,NNE,22,4.0,16.0,81,0.12,,,0.24,Rainwise IP-100,2013-03-19 03:54:00,
2013-03-18 23:59:00,34.0,29.0,29.99,ESE,112,6.0,18.0,81,0.12,,,0.25,Rainwise IP-100,2013-03-19 03:59:00,